This is the latest recevied weather packets stored in our database for station/object WX5HOT. If no packets are shown the sender has not sent any weather packets the latest 10 day(s).
| Time | Temp. | Humidity | Pressure | Rain* | Wind** | Luminosity | Snow |
|---|---|---|---|---|---|---|---|
| 1777078772 | 13.89° C | 99% | 1060.7 hPa | 10.67 mm | - | 0 W/m² | - |
| 1777078469 | 14.44° C | 99% | 1060.9 hPa | 1.78 mm | - | 0 W/m² | - |
| 1777078168 | 13.89° C | 99% | 1060.6 hPa | 0 mm | - | 0 W/m² | - |
| 1777077863 | 13.89° C | 99% | 1059.8 hPa | 0 mm | - | 0 W/m² | - |
| 1777077561 | 13.89° C | 99% | 1059.1 hPa | 0 mm | - | 1 W/m² | - |
| 1777077256 | 13.89° C | 99% | 1059.2 hPa | 0 mm | - | 1 W/m² | - |
| 1777076955 | 13.89° C | 99% | 1059.2 hPa | 0 mm | - | 1 W/m² | - |
| 1777076651 | 13.89° C | 99% | 1059 hPa | 0 mm | - | 2 W/m² | - |
| 1777076348 | 13.89° C | 99% | 1059.3 hPa | 0 mm | - | 2 W/m² | - |
| 1777076043 | 13.89° C | 99% | 1058.8 hPa | 0 mm | - | 5 W/m² | - |
| 1777075739 | 13.89° C | 99% | 1058.9 hPa | 0 mm | - | 6 W/m² | - |
| 1777075439 | 13.89° C | 99% | 1058.9 hPa | 0 mm | - | 6 W/m² | - |
| 1777075136 | 13.89° C | 99% | 1059.2 hPa | 0 mm | - | 8 W/m² | - |
| 1777074832 | 13.89° C | 99% | 1059.3 hPa | 0 mm | - | 6 W/m² | - |
| 1777074527 | 13.89° C | 99% | 1059.1 hPa | 0 mm | - | 12 W/m² | - |
| 1777074224 | 13.89° C | 99% | 1059.1 hPa | 0 mm | - | 10 W/m² | - |
| 1777073921 | 13.89° C | 99% | 1059.3 hPa | 0 mm | - | 13 W/m² | - |
| 1777073616 | 14.44° C | 99% | 1059.2 hPa | 0 mm | - | 15 W/m² | - |
| 1777073311 | 14.44° C | 99% | 1059.5 hPa | 0 mm | - | 16 W/m² | - |
| 1777073007 | 14.44° C | 99% | 1059.2 hPa | 0 mm | - | 20 W/m² | - |
| 1777072704 | 14.44° C | 99% | 1059.2 hPa | 0 mm | - | 17 W/m² | - |
| 1777072402 | 14.44° C | 99% | 1058.6 hPa | 0 mm | - | 28 W/m² | - |
| 1777072097 | 14.44° C | 99% | 1058.6 hPa | 0 mm | - | 32 W/m² | - |
| 1777071794 | 14.44° C | 99% | 1058.3 hPa | 0 mm | - | 44 W/m² | - |
| 1777071490 | 14.44° C | 99% | 1058.5 hPa | 0 mm | - | 53 W/m² | - |
* Rain latest hour (hover to see other rain measurements)
** Current wind speed in m/s (hover to see current wind gust speed)